OBJECT AL, 61769

Orbit data source: Space-Track

You're viewing an Uncataloged Satellite

Recently launched and/or uncataloged satellites may have evolving metadata. Metadata may include but not limited to: Owner, Maufacturer, Bus, Motor, and Mission.

OBJECT AL, 61769 is a satellite in SSO that was launched on Mon, 04 Nov 2024 UTC via a SOYUZ-2-1B launch vehicle from the Vostochny Cosmodrome (VOSTO). Unknown objects in Earth's orbit typically refer to objects detected orbiting the Earth but have not yet been identified or cataloged. These objects could be anything from previously untracked satellites, spent rocket stages, debris from satellite collisions, or even natural meteoroids temporarily captured by Earth's gravity.

Loading next visibility...
Identifier
61769, 2024-199AL
Orbit
SSO
Country
Flag of TBDTBD
Related business
Flag of IROmid-e-Faza company (SpaceOmid) (IR)
Manufacturer
OMID
Mission
Operational Commercial Imaging
Bus & Motor
KOWSAR, Unknown motor
Mass
30 kg wet, 30 kg dry
Launch date (UTC)
2024-11-04 (10 months ago)
Launch vehicle
SOYUZ-2-1B
Launch site
Vostochny Cosmodrome (VOSTO)
Object type
Unknown
Shape & HBR
Box, 0.2 m
Radar Cross Section
0.100 m², Medium (>0.1 m² and < 1m²)

Expand to show TLE details & history
Last TLE update: 14 hours ago

TLE from 14 hours ago
0 OBJECT AL
1 61769U 24199AL  25260.25010552  .00015896  00000-0  43614-3 0  9999
2 61769  97.3377 128.9911 0006909 182.3802 177.7411 15.37323864 92265
Epoch: 2025-09-17T06:00Z
TLE epoch observation values (Epoch: 2025-09-17T06:00:09.116Z)
Latitude
-0.00005°
Longitude
42.52437°
Altitude
461.86 km
Speed
7.633 km/s
True Right ascension
08h 35m 57s
True Declination
0° 00' 00"
Sunlit
Object was in daylight at epoch
Visualization orbit readout
Latitude
Unknown
Longitude
Unknown
Altitude
Unknown
Speed
Unknown
Apparent Right ascension
Unknown
Apparent Declination
Unknown
Sunlit
N/A
Visualization observer readout
Local Sidereal Time
13:10:46
Azimuth
Unknown
Elevation
Unknown
Doppler factor
Unknown
Orbital elements
Apogee altitude
455.685 km
Perigee altitude
446.248 km
Semi-major axis
6,829.104 km
Eccentricity
0.00069
Inclination
97.3377°
RAAN
128.9911°
Arg. of periapsis
182.3802°
True anomaly
177.74422°
Mean anomaly
177.7411°
Eccentric anomaly
177.74266°
Mean motion
3.8459 °/min
Orbital period
93.61 mins
BSTAR
0.00043614
Loading maneuver chart data...
Computing Atmospheric mass density...
Loading historical data...
Loading historical data...
Loading historical data...
Loading historical data...
Loading historical data...
Loading historical data...
Loading historical data...

Documentation

Showing up to 5 results
|